Terminal Aerodrome Forecast
Issued by NWS

Home | Current Version | Previous Version | Text Only | Print | Product List | Glossary On
Versions: 1 2 3 4 5 6 7 8 9 10 11 12 13 14 15 16 17 18 19 20 21 22
000
FTUS43 KIND 211100
TAFLAF
TAF
KLAF 211120Z 2112/2212 VRB04KT P6SM VCTS BKN050CB
      TEMPO 2112/2114 5SM TSRA BR BKN030CB
     FM211800 24008KT P6SM BKN050
     FM220100 22003KT P6SM SCT060 BKN250
      AMD LTD TO CLD VIS AND WIND TIL 211300=

USA.gov is the U.S. government's official web portal to all federal, state and local government web resources and services.